アトラス彗星

C/2022 Q2 ( ATLAS )

English version
Home page
Updated on January 21, 2023

---------------------------------------------------------------------

・ プロフィール

発見日 2022年8月27日
発見光度 19.0等
発見者 Asteroid Terrestrial-Impact Last Alert System (ATLAS) search program

・ 写真集

・ 軌道要素

Epoch 2023 Feb. 25.0 TT = JDT 2460000.5
T 2023 Jan. 31.60109 TT                                 Rudenko
q   1.6440772            (2000.0)            P               Q
n   0.00529098     Peri.   44.06772     +0.63800151     -0.76779880
a  32.6171153      Node   352.94374     -0.76951636     -0.63292510
e   0.9495946      Incl.  151.48531     +0.02826040     +0.09945260
P 186
>From 538 observations 2022 Aug. 27-Dec. 21, mean residual 0".5.

・ 光度変化

        m1 = 13.0 + 5 logΔ + 10.0 log r

---------------------------------------------------------------------

軌道要素はM.P.E.C. 2023-A50に掲載されたものです。
光度グラフはComet for Windowsで作成したものです。

---------------------------------------------------------------------

Copyright(C) Seiichi Yoshida (comet@aerith.net). All rights reserved.